This is the latest recevied weather packets stored in our database for station/object NK7I. If no packets are shown the sender has not sent any weather packets the latest 10 day(s).
| Time | Temp. | Humidity | Pressure | Rain* | Wind** | Luminosity | Snow |
|---|---|---|---|---|---|---|---|
| 1777587083 | 23.33° C | 29% | 1018.8 hPa | 0 mm | - | 1028 W/m² | - |
| 1777586782 | 22.78° C | 29% | 1018.8 hPa | 0 mm | - | 1042 W/m² | - |
| 1777586484 | 22.78° C | 28% | 1018.9 hPa | 0 mm | - | 1056 W/m² | - |
| 1777586182 | 22.78° C | 29% | 1019 hPa | 0 mm | - | 1074 W/m² | - |
| 1777585883 | 22.78° C | 30% | 1019.1 hPa | 0 mm | - | 1086 W/m² | - |
| 1777585583 | 22.78° C | 29% | 1019.1 hPa | 0 mm | - | 1100 W/m² | - |
| 1777585282 | 22.22° C | 29% | 1019.2 hPa | 0 mm | - | 1120 W/m² | - |
| 1777584982 | 22.22° C | 32% | 1019.2 hPa | 0 mm | - | 1132 W/m² | - |
| 1777584683 | 21.67° C | 29% | 1019.3 hPa | 0 mm | - | 1141 W/m² | - |
| 1777584383 | 22.22° C | 26% | 1019.4 hPa | 0 mm | - | 1158 W/m² | - |
| 1777584083 | 22.22° C | 29% | 1019.5 hPa | 0 mm | - | 1167 W/m² | - |
| 1777583782 | 22.22° C | 28% | 1019.5 hPa | 0 mm | - | 1176 W/m² | - |
| 1777583482 | 22.22° C | 31% | 1019.5 hPa | 0 mm | - | 1187 W/m² | - |
| 1777583182 | 22.22° C | 27% | 1019.6 hPa | 0 mm | - | 1199 W/m² | - |
| 1777582882 | 22.22° C | 29% | 1019.7 hPa | 0 mm | - | 1208 W/m² | - |
| 1777582582 | 21.67° C | 31% | 1019.6 hPa | 0 mm | - | 1215 W/m² | - |
| 1777582282 | 21.67° C | 32% | 1019.7 hPa | 0 mm | - | 1220 W/m² | - |
| 1777581982 | 21.67° C | 30% | 1019.7 hPa | 0 mm | - | 1234 W/m² | - |
| 1777581682 | 21.67° C | 30% | 1019.7 hPa | 0 mm | - | 1239 W/m² | - |
| 1777581383 | 21.67° C | 28% | 1019.8 hPa | 0 mm | - | 1245 W/m² | - |
| 1777581082 | 21.67° C | 31% | 1019.8 hPa | 0 mm | - | 1246 W/m² | - |
| 1777580782 | 21.67° C | 31% | 1020 hPa | 0 mm | - | 1253 W/m² | - |
| 1777580483 | 21.67° C | 28% | 1020 hPa | 0 mm | - | 1257 W/m² | - |
| 1777580182 | 21.11° C | 30% | 1020.1 hPa | 0 mm | - | 1262 W/m² | - |
| 1777579882 | 21.11° C | 28% | 1020.1 hPa | 0 mm | - | 1271 W/m² | - |
* Rain latest hour (hover to see other rain measurements)
** Current wind speed in m/s (hover to see current wind gust speed)